FW2966 Weather Reports


time (UTC)temp
C
wind
direction
speed
KPH
gust
KPH
rain 1hr
cm
rain 24hr
cm
rain mn
cm
humidity
%
barometer
mb
20260506003049 17 225 3.2 12.9 0.00 0.00 0.00 73 1009.1
20260506001538 17 124 6.4 20.9 0.00 0.00 0.00 72 1008.9
20260506000048 17 187 6.4 14.5 0.00 0.00 0.00 72 1008.9
20260505234607 17 201 4.8 24.1 0.00 0.00 0.00 72 1008.7
20260505233041 18 175 6.4 12.9 0.00 0.00 0.00 71 1008.5
20260505231549 18 207 3.2 12.9 0.00 0.00 0.00 71 1008.2
20260505230051 18 240 4.8 22.5 0.00 0.00 0.00 71 1008.0
20260505224544 18 159 6.4 20.9 0.00 0.00 0.00 70 1007.7
20260505223058 19 196 4.8 16.1 0.00 0.00 0.00 68 1007.6
20260505221557 19 146 4.8 12.9 0.00 0.00 0.00 68 1007.6
20260505220119 20 184 6.4 16.1 0.00 0.00 0.00 67 1007.5
20260505214604 20 190 6.4 17.7 0.00 0.00 0.00 67 1007.5
20260505213051 19 107 4.8 17.7 0.00 0.00 0.00 67 1007.3
20260505211559 19 190 9.7 25.7 0.00 0.00 0.00 67 1007.2
20260505210051 19 192 9.7 25.7 0.00 0.00 0.00 67 1007.2
20260505204545 20 188 9.7 24.1 0.00 0.00 0.00 66 1007.4
20260505203045 20 188 9.7 29.0 0.00 0.00 0.00 64 1007.5
20260505201602 21 199 9.7 22.5 0.00 0.00 0.00 62 1007.5
20260505200104 22 232 8.0 22.5 0.00 0.00 0.00 61 1007.6
20260505194555 22 158 8.0 17.7 0.00 0.00 0.00 62 1007.9
20260505193046 21 230 8.0 17.7 0.00 0.00 0.00 64 1008.3
20260505191553 21 205 6.4 17.7 0.00 0.00 0.00 63 1008.4
20260505190051 21 175 6.4 19.3 0.00 0.00 0.00 62 1008.8
20260505184550 21 200 9.7 20.9 0.00 0.00 0.00 63 1008.9
20260505183052 21 130 6.4 14.5 0.00 0.00 0.00 66 1009.0
20260505181549 21 141 8.0 16.1 0.00 0.00 0.00 65 1009.0
20260505180050 21 171 6.4 17.7 0.00 0.00 0.00 66 1009.1
20260505174549 22 169 4.8 16.1 0.00 0.00 0.00 65 1009.2
20260505173047 22 197 4.8 12.9 0.00 0.00 0.00 62 1009.2
20260505171543 22 169 8.0 19.3 0.00 0.00 0.00 61 1009.3
20260505170043 22 203 6.4 19.3 0.00 0.00 0.00 60 1009.5
20260505164542 22 133 6.4 16.1 0.00 0.00 0.00 61 1009.7
20260505163044 22 178 4.8 16.1 0.00 0.00 0.00 62 1009.9
20260505161544 21 158 4.8 12.9 0.00 0.00 0.00 64 1010.0
20260505153049 21 211 4.8 11.3 0.00 0.00 0.00 64 1010.2
20260505151549 21 162 4.8 12.9 0.00 0.00 0.00 65 1010.3
20260505124553 16 169 3.2 8.0 0.00 0.00 0.00 79 1010.5
20260505123043 15 198 1.6 4.8 0.00 0.00 0.00 82 1010.5
20260505121542 14 173 1.6 4.8 0.00 0.00 0.00 84 1010.6
20260505120052 13 0 0.0 4.8 0.00 0.00 0.00 87 1010.5
20260505114545 12 167 0.0 4.8 0.00 0.00 0.00 86 1010.5
20260505113041 12 165 3.2 8.0 0.00 0.00 0.00 87 1010.4
20260505111547 12 171 0.0 3.2 0.00 0.00 0.00 89 1010.6
20260505101546 11 0 0.0 3.2 0.00 0.00 0.00 88 1010.2
20260505100044 11 0 0.0 4.8 0.00 0.00 0.00 89 1009.9
20260505094542 11 0 0.0 4.8 0.00 0.00 0.00 89 1009.7
20260505093044 11 0 0.0 0.0 0.00 0.00 0.00 89 1009.8
20260505091539 11 240 1.6 6.4 0.00 0.00 0.00 89 1009.7
20260505090042 11 0 0.0 4.8 0.00 0.00 0.00 89 1009.8
20260505084547 11 0 0.0 4.8 0.00 0.00 0.00 89 1009.9
20260505083045 11 0 0.0 3.2 0.00 0.00 0.00 89 1009.7
20260505081544 11 0 0.0 4.8 0.00 0.00 0.00 88 1009.9
20260505080038 11 277 0.0 6.4 0.00 0.00 0.00 88 1009.8
20260505074546 12 0 0.0 6.4 0.00 0.00 0.00 88 1009.8
20260505073051 12 0 0.0 4.8 0.00 0.00 0.00 87 1009.7
20260505071544 12 163 1.6 8.0 0.00 0.00 0.00 87 1009.7
20260505070051 12 0 0.0 6.4 0.00 0.00 0.00 86 1009.7
20260505064547 12 129 1.6 8.0 0.00 0.00 0.00 86 1009.7
20260505063108 12 143 1.6 6.4 0.00 0.00 0.00 85 1009.8
20260505061545 12 176 0.0 8.0 0.00 0.00 0.00 84 1009.9
20260505060048 12 153 3.2 11.3 0.00 0.00 0.00 83 1009.8
20260505054545 13 180 1.6 8.0 0.00 0.00 0.00 80 1009.9
20260505053054 13 149 0.0 6.4 0.00 0.00 0.00 78 1010.0
20260505051546 13 196 1.6 8.0 0.00 0.00 0.00 76 1010.1
20260505041552 13 0 0.0 4.8 0.00 0.00 0.00 76 1010.4
20260505040052 13 0 0.0 1.6 0.00 0.00 0.00 75 1010.5
20260505034545 13 0 0.0 4.8 0.00 0.00 0.00 75 1010.5
20260505033044 13 0 0.0 11.3 0.00 0.00 0.00 75 1010.4
20260505031555 13 205 1.6 8.0 0.00 0.00 0.00 74 1010.5
20260505030048 13 178 0.0 9.7 0.00 0.00 0.00 74 1010.5
20260505024555 14 217 1.6 4.8 0.00 0.00 0.00 74 1010.4
20260505023048 14 175 0.0 4.8 0.00 0.00 0.00 74 1010.5
20260505021542 14 317 0.0 4.8 0.00 0.00 0.00 74 1010.5
20260505020046 14 187 0.0 6.4 0.00 0.00 0.00 74 1010.6
20260505014600 14 143 0.0 4.8 0.00 0.00 0.00 74 1010.5
20260505013042 14 0 0.0 11.3 0.00 0.00 0.00 74 1010.5
20260505011556 14 238 1.6 6.4 0.00 0.00 0.00 75 1010.3
20260505010042 14 185 1.6 9.7 0.00 0.00 0.00 75 1010.1
20260505004544 14 252 1.6 8.0 0.00 0.00 0.00 75 1009.9